| time (UTC) | temp F | wind direction | speed MPH | gust MPH | rain 1hr in | rain 24hr in | rain mn in | humidity % | barometer mb |
| 20260506104306 | 55 | 26 | 9.0 | 18.0 | 0.00 | 0.00 | 0.00 | 74 | 1013.5 |
| 20260506102307 | 53 | 23 | 6.0 | 13.0 | 0.00 | 0.00 | 0.00 | 79 | 1013.5 |
| 20260506100305 | 53 | 18 | 7.0 | 15.0 | 0.00 | 0.00 | 0.00 | 81 | 1013.6 |
| 20260506095306 | 52 | 21 | 7.0 | 14.0 | 0.00 | 0.00 | 0.00 | 83 | 1013.5 |
| 20260506094805 | 51 | 37 | 5.0 | 14.0 | 0.00 | 0.00 | 0.00 | 86 | 1013.6 |
| 20260506094305 | 51 | 42 | 6.0 | 14.0 | 0.00 | 0.00 | 0.00 | 87 | 1013.6 |
| 20260506092805 | 50 | 5 | 6.0 | 13.0 | 0.00 | 0.00 | 0.00 | 89 | 1013.6 |
| 20260506092306 | 50 | 347 | 6.0 | 14.0 | 0.00 | 0.00 | 0.00 | 89 | 1013.6 |
| 20260506091806 | 50 | 341 | 7.0 | 15.0 | 0.00 | 0.00 | 0.00 | 89 | 1013.5 |
| 20260506090807 | 50 | 335 | 5.0 | 10.0 | 0.00 | 0.00 | 0.00 | 90 | 1013.5 |
| 20260506085306 | 50 | 359 | 5.0 | 9.0 | 0.00 | 0.00 | 0.00 | 91 | 1013.5 |
| 20260506084305 | 50 | 327 | 6.0 | 12.0 | 0.00 | 0.00 | 0.00 | 89 | 1013.5 |
| 20260506082805 | 50 | 17 | 5.0 | 8.0 | 0.00 | 0.00 | 0.00 | 89 | 1013.4 |
| 20260506082305 | 50 | 15 | 3.0 | 10.0 | 0.00 | 0.00 | 0.00 | 88 | 1013.4 |
| 20260506081305 | 50 | 9 | 6.0 | 13.0 | 0.00 | 0.00 | 0.00 | 84 | 1013.4 |
| 20260506080805 | 51 | 0 | 5.0 | 13.0 | 0.00 | 0.00 | 0.00 | 81 | 1013.6 |
| 20260506071805 | 51 | 5 | 7.0 | 13.0 | 0.00 | 0.00 | 0.00 | 87 | 1013.1 |
| 20260506070305 | 50 | 329 | 7.0 | 16.0 | 0.00 | 0.00 | 0.00 | 90 | 1013.0 |
| 20260506062306 | 46 | 333 | 6.0 | 14.0 | 0.00 | 0.00 | 0.00 | 93 | 1013.0 |
| 20260506061805 | 46 | 333 | 5.0 | 14.0 | 0.00 | 0.00 | 0.00 | 93 | 1012.9 |
| 20260506061305 | 46 | 339 | 7.0 | 13.0 | 0.00 | 0.00 | 0.00 | 94 | 1013.0 |
| 20260506060805 | 46 | 336 | 5.0 | 12.0 | 0.00 | 0.00 | 0.00 | 94 | 1012.8 |
| 20260506060305 | 46 | 337 | 6.0 | 10.0 | 0.00 | 0.00 | 0.00 | 95 | 1012.8 |
| 20260506051305 | 42 | 324 | 4.0 | 7.0 | 0.00 | 0.00 | 0.00 | 95 | 1012.9 |
| 20260506050805 | 42 | 346 | 3.0 | 6.0 | 0.00 | 0.00 | 0.00 | 95 | 1013.0 |
| 20260506050305 | 42 | 339 | 2.0 | 6.0 | 0.00 | 0.00 | 0.00 | 95 | 1012.9 |
| 20260506041805 | 41 | 320 | 5.0 | 7.0 | 0.00 | 0.00 | 0.00 | 94 | 1012.9 |
| 20260506040805 | 41 | 342 | 3.0 | 6.0 | 0.00 | 0.00 | 0.00 | 93 | 1012.9 |
| 20260506035306 | 42 | 335 | 4.0 | 9.0 | 0.00 | 0.00 | 0.00 | 93 | 1013.0 |
| 20260506034305 | 42 | 332 | 3.0 | 7.0 | 0.00 | 0.00 | 0.00 | 93 | 1013.0 |
| 20260506033807 | 42 | 328 | 4.0 | 7.0 | 0.00 | 0.00 | 0.00 | 92 | 1013.0 |
| 20260506033304 | 42 | 339 | 3.0 | 10.0 | 0.00 | 0.00 | 0.00 | 92 | 1013.0 |
| 20260506032805 | 42 | 313 | 3.0 | 7.0 | 0.00 | 0.00 | 0.00 | 92 | 1013.1 |
| 20260506031805 | 42 | 323 | 3.0 | 6.0 | 0.00 | 0.00 | 0.00 | 92 | 1013.1 |
| 20260506031304 | 43 | 327 | 3.0 | 7.0 | 0.00 | 0.00 | 0.00 | 92 | 1013.2 |
| 20260506025805 | 43 | 336 | 3.0 | 10.0 | 0.00 | 0.00 | 0.00 | 91 | 1013.4 |
| 20260506025306 | 43 | 331 | 3.0 | 6.0 | 0.00 | 0.00 | 0.00 | 91 | 1013.4 |
| 20260506024805 | 43 | 325 | 3.0 | 5.0 | 0.00 | 0.00 | 0.00 | 91 | 1013.5 |
| 20260506024305 | 44 | 320 | 3.0 | 5.0 | 0.00 | 0.00 | 0.00 | 91 | 1013.5 |
| 20260506023807 | 44 | 352 | 2.0 | 3.0 | 0.00 | 0.00 | 0.00 | 91 | 1013.4 |
| 20260506023305 | 44 | 351 | 3.0 | 6.0 | 0.00 | 0.00 | 0.00 | 91 | 1013.3 |
| 20260506022805 | 44 | 7 | 2.0 | 3.0 | 0.00 | 0.00 | 0.00 | 91 | 1013.3 |
| 20260506022306 | 44 | 351 | 2.0 | 3.0 | 0.00 | 0.00 | 0.00 | 91 | 1013.4 |
| 20260506020804 | 44 | 14 | 2.0 | 6.0 | 0.00 | 0.00 | 0.00 | 91 | 1013.4 |
| 20260506020304 | 44 | 5 | 3.0 | 7.0 | 0.00 | 0.00 | 0.00 | 91 | 1013.5 |
| 20260506015804 | 44 | 19 | 2.0 | 6.0 | 0.00 | 0.00 | 0.00 | 90 | 1013.5 |
| 20260506015306 | 44 | 35 | 3.0 | 6.0 | 0.00 | 0.00 | 0.00 | 90 | 1013.5 |
| 20260506014804 | 45 | 14 | 2.0 | 3.0 | 0.00 | 0.00 | 0.00 | 90 | 1013.6 |
| 20260506011805 | 46 | 352 | 2.0 | 5.0 | 0.00 | 0.00 | 0.00 | 89 | 1013.5 |
| 20260506011305 | 46 | 1 | 3.0 | 6.0 | 0.00 | 0.00 | 0.00 | 89 | 1013.7 |
| 20260506010305 | 46 | 342 | 3.0 | 7.0 | 0.00 | 0.00 | 0.00 | 88 | 1013.6 |
| 20260506005805 | 46 | 336 | 3.0 | 7.0 | 0.00 | 0.00 | 0.00 | 88 | 1013.7 |
| 20260506005306 | 47 | 347 | 5.0 | 8.0 | 0.00 | 0.00 | 0.00 | 88 | 1013.8 |
| 20260506004305 | 47 | 335 | 3.0 | 9.0 | 0.00 | 0.00 | 0.00 | 88 | 1013.8 |
| 20260506003804 | 47 | 349 | 4.0 | 10.0 | 0.00 | 0.00 | 0.00 | 87 | 1013.8 |
| 20260506001304 | 48 | 357 | 3.0 | 10.0 | 0.00 | 0.00 | 0.00 | 87 | 1013.8 |
| 20260505235804 | 49 | 15 | 3.0 | 12.0 | 0.00 | 0.00 | 0.00 | 87 | 1013.8 |
| 20260505235305 | 49 | 7 | 5.0 | 12.0 | 0.00 | 0.00 | 0.00 | 87 | 1013.7 |
| 20260505234805 | 49 | 18 | 4.0 | 9.0 | 0.00 | 0.00 | 0.00 | 87 | 1013.8 |
| 20260505234305 | 49 | 29 | 3.0 | 6.0 | 0.00 | 0.00 | 0.00 | 87 | 1013.8 |
| 20260505233304 | 49 | 20 | 4.0 | 10.0 | 0.00 | 0.00 | 0.00 | 87 | 1013.9 |
| 20260505232804 | 49 | 19 | 3.0 | 8.0 | 0.00 | 0.00 | 0.00 | 87 | 1013.9 |
| 20260505231805 | 49 | 20 | 5.0 | 12.0 | 0.00 | 0.00 | 0.00 | 87 | 1013.9 |
| 20260505230824 | 49 | 11 | 3.0 | 15.0 | 0.00 | 0.00 | 0.00 | 87 | 1014.0 |
| 20260505224805 | 49 | 21 | 4.0 | 10.0 | 0.00 | 0.00 | 0.00 | 88 | 1014.1 |
| 20260505222306 | 50 | 17 | 4.0 | 12.0 | 0.00 | 0.00 | 0.00 | 88 | 1014.2 |
| 20260505221804 | 50 | 21 | 3.0 | 7.0 | 0.00 | 0.00 | 0.00 | 88 | 1014.1 |
| 20260505220304 | 50 | 18 | 5.0 | 7.0 | 0.00 | 0.00 | 0.00 | 88 | 1014.1 |
| 20260505215305 | 50 | 45 | 3.0 | 10.0 | 0.00 | 0.00 | 0.00 | 88 | 1014.1 |
| 20260505214305 | 50 | 25 | 1.0 | 3.0 | 0.00 | 0.00 | 0.00 | 88 | 1014.2 |
| 20260505213804 | 50 | 43 | 4.0 | 7.0 | 0.00 | 0.00 | 0.00 | 88 | 1014.2 |
| 20260505212306 | 50 | 17 | 4.0 | 10.0 | 0.00 | 0.00 | 0.00 | 88 | 1014.1 |
| 20260505211804 | 50 | 28 | 6.0 | 15.0 | 0.00 | 0.00 | 0.00 | 88 | 1014.1 |
| 20260505211306 | 50 | 24 | 3.0 | 12.0 | 0.00 | 0.00 | 0.00 | 88 | 1014.2 |
| 20260505210806 | 50 | 40 | 5.0 | 13.0 | 0.00 | 0.00 | 0.00 | 88 | 1014.2 |
| 20260505210304 | 50 | 35 | 6.0 | 13.0 | 0.00 | 0.00 | 0.00 | 88 | 1014.2 |
| 20260505205305 | 51 | 28 | 3.0 | 9.0 | 0.00 | 0.00 | 0.00 | 87 | 1014.1 |
| 20260505204305 | 51 | 43 | 4.0 | 9.0 | 0.00 | 0.00 | 0.00 | 87 | 1014.1 |
| 20260505203304 | 51 | 33 | 4.0 | 16.0 | 0.00 | 0.00 | 0.00 | 86 | 1014.2 |
| 20260505202306 | 51 | 31 | 5.0 | 12.0 | 0.00 | 0.00 | 0.00 | 86 | 1014.2 |
| 20260505201804 | 51 | 22 | 5.0 | 12.0 | 0.00 | 0.00 | 0.00 | 86 | 1014.1 |
| 20260505195305 | 51 | 33 | 4.0 | 8.0 | 0.00 | 0.00 | 0.00 | 84 | 1013.9 |
| 20260505194304 | 51 | 21 | 4.0 | 12.0 | 0.00 | 0.00 | 0.00 | 84 | 1013.8 |
| 20260505193804 | 52 | 32 | 3.0 | 12.0 | 0.00 | 0.00 | 0.00 | 85 | 1013.7 |
| 20260505192805 | 52 | 47 | 7.0 | 16.0 | 0.00 | 0.00 | 0.00 | 85 | 1013.8 |
| 20260505192305 | 52 | 30 | 6.0 | 13.0 | 0.00 | 0.00 | 0.00 | 85 | 1013.7 |
| 20260505191304 | 52 | 44 | 5.0 | 12.0 | 0.00 | 0.00 | 0.00 | 84 | 1013.6 |
| 20260505190804 | 52 | 19 | 6.0 | 15.0 | 0.00 | 0.00 | 0.00 | 83 | 1013.5 |
| 20260505190304 | 52 | 36 | 4.0 | 15.0 | 0.00 | 0.00 | 0.00 | 83 | 1013.5 |
| 20260505185804 | 53 | 33 | 6.0 | 14.0 | 0.00 | 0.00 | 0.00 | 82 | 1013.5 |
| 20260505184305 | 53 | 63 | 4.0 | 14.0 | 0.00 | 0.00 | 0.00 | 81 | 1013.4 |
| 20260505182804 | 54 | 49 | 6.0 | 17.0 | 0.00 | 0.00 | 0.00 | 78 | 1013.4 |
| 20260505182306 | 54 | 22 | 6.0 | 13.0 | 0.00 | 0.00 | 0.00 | 79 | 1013.4 |
| 20260505181804 | 54 | 16 | 6.0 | 14.0 | 0.00 | 0.00 | 0.00 | 79 | 1013.4 |
| 20260505175305 | 55 | 13 | 6.0 | 15.0 | 0.00 | 0.00 | 0.00 | 76 | 1013.3 |
| 20260505174304 | 56 | 29 | 7.0 | 13.0 | 0.00 | 0.00 | 0.00 | 75 | 1013.2 |
| 20260505173304 | 56 | 26 | 7.0 | 15.0 | 0.00 | 0.00 | 0.00 | 76 | 1013.2 |
| 20260505171304 | 57 | 62 | 7.0 | 13.0 | 0.00 | 0.00 | 0.00 | 77 | 1013.1 |
| 20260505170804 | 57 | 46 | 9.0 | 16.0 | 0.00 | 0.00 | 0.00 | 76 | 1013.1 |
| 20260505164304 | 58 | 34 | 7.0 | 20.0 | 0.00 | 0.00 | 0.00 | 76 | 1013.0 |
| 20260505163804 | 58 | 12 | 8.0 | 14.0 | 0.00 | 0.00 | 0.00 | 77 | 1013.0 |
| 20260505162306 | 58 | 52 | 6.0 | 13.0 | 0.00 | 0.00 | 0.00 | 77 | 1012.9 |
| 20260505161806 | 58 | 29 | 7.0 | 15.0 | 0.00 | 0.00 | 0.00 | 77 | 1012.8 |
| 20260505160304 | 60 | 48 | 6.0 | 13.0 | 0.00 | 0.00 | 0.00 | 74 | 1012.8 |
| 20260505153304 | 60 | 5 | 7.0 | 14.0 | 0.00 | 0.00 | 0.00 | 74 | 1012.8 |
| 20260505152305 | 60 | 355 | 7.0 | 14.0 | 0.00 | 0.00 | 0.00 | 74 | 1012.8 |
| 20260505151304 | 60 | 21 | 5.0 | 12.0 | 0.00 | 0.00 | 0.00 | 74 | 1012.8 |
| 20260505150304 | 60 | 24 | 6.0 | 14.0 | 0.00 | 0.00 | 0.00 | 74 | 1012.8 |
| 20260505130304 | 62 | 320 | 5.0 | 9.0 | 0.00 | 0.00 | 0.00 | 64 | 1012.9 |
| 20260505124803 | 61 | 352 | 6.0 | 12.0 | 0.00 | 0.00 | 0.00 | 64 | 1012.9 |
| 20260505123304 | 62 | 38 | 2.0 | 3.0 | 0.00 | 0.00 | 0.00 | 64 | 1012.9 |
| 20260505120804 | 62 | 303 | 3.0 | 6.0 | 0.00 | 0.00 | 0.00 | 64 | 1013.0 |
| 20260505120304 | 62 | 338 | 5.0 | 12.0 | 0.00 | 0.00 | 0.00 | 63 | 1013.0 |
| 20260505115305 | 63 | 46 | 2.0 | 6.0 | 0.00 | 0.00 | 0.00 | 60 | 1013.0 |
| 20260505114304 | 64 | 335 | 5.0 | 9.0 | 0.00 | 0.00 | 0.00 | 56 | 1013.0 |
| 20260505113304 | 64 | 209 | 4.0 | 6.0 | 0.00 | 0.00 | 0.00 | 57 | 1013.0 |
| 20260505111306 | 62 | 31 | 3.0 | 8.0 | 0.00 | 0.00 | 0.00 | 62 | 1013.1 |
| 20260505110806 | 63 | 54 | 5.0 | 10.0 | 0.00 | 0.00 | 0.00 | 62 | 1013.2 |